Hourly Data Report for October 10, 2015

All times are specified in Local Standard Time (LST). Add 1 hour to adjust for Daylight Saving Time where and when it is observed.

BAKER LAKE A
NUNAVUT

64°17'56.000" N
96°04'40.000" W
18.60 m
2300503
71926
YBK

Download Data

Hourly Data (October 2015)
Hourly Data Report for October 10, 2015
Temp Definition
°C
Dew Point Temp Definition
°C
Rel Hum Definition
%
Wind Dir Definition
10's deg

Wind Spd Definition
km/h
Visibility Definition
km
Stn Press Definition
kPa
Hmdx Definition


Wind Chill Definition


Weather Definition


TIME
00:00 Legend Double Dagger -8.0 -9.9 86 23 4 24.1 101.02   -10 Mainly Clear
01:00 Legend Double Dagger -7.2 -9.2 86 33 7 24.1 101.02   -11 LegendNANA
02:00 Legend Double Dagger -7.0 -9.1 85 31 7 24.1 100.96   -11 LegendNANA
03:00 Legend Double Dagger -6.3 -9.7 77 4 11 24.1 100.91   -11 Cloudy
04:00 Legend Double Dagger -6.8 -9.5 81 21 4 24.1 100.85   -9 Snow
05:00 Legend Double Dagger -6.4 -8.5 85 7 14 24.1 100.80   -12 Snow
06:00 Legend Double Dagger -7.0 -8.8 87 8 18 24.1 100.73   -14 Snow
07:00 Legend Double Dagger -7.0 -8.7 88 17 17 16.1 100.71   -13 Snow
08:00 Legend Double Dagger -6.9 -8.6 88 13 28 32.2 100.61   -15 Snow
09:00 Legend Double Dagger -6.7 -8.4 88 13 31 32.2 100.60   -15 Snow
10:00 Legend Double Dagger -7.0 -9.1 85 13 30 32.2 100.55   -16 LegendNANA
11:00 Legend Double Dagger -7.0 -8.8 87 13 29 32.2 100.45   -15 LegendNANA
12:00 Legend Double Dagger -6.3 -9.0 81 13 30 32.2 100.39   -15 Cloudy
13:00 Legend Double Dagger -5.7 -9.3 76 14 29 32.2 100.31   -14 LegendNANA
14:00 Legend Double Dagger -5.5 -9.1 76 13 29 32.2 100.26   -14 LegendNANA
15:00 Legend Double Dagger -5.3 -9.1 75 13 29 32.2 100.22   -13 Cloudy
16:00 Legend Double Dagger -4.9 -8.5 76 13 31 32.2 100.16   -13 LegendNANA
17:00 Legend Double Dagger -4.5 -8.3 75 12 33 32.2 100.13   -13 LegendNANA
18:00 Legend Double Dagger -4.2 -7.5 78 11 39 32.2 100.10   -13 Cloudy
19:00 Legend Double Dagger -4.0 -6.6 82 12 36 24.1 100.07   -12 LegendNANA
20:00 Legend Double Dagger -3.5 -6.5 80 12 40 24.1 100.02   -12 LegendNANA
21:00 Legend Double Dagger -3.3 -6.6 78 11 38 24.1 100.01   -12 Cloudy
22:00 Legend Double Dagger -3.2 -6.5 78 11 36 24.1 99.98   -11 LegendNANA
23:00 Legend Double Dagger -2.9 -6.6 76 12 40 24.1 99.95   -11 LegendNANA

Notes on Data Quality.

Legend

  • E = Estimated
  • M = Missing
  • NA = Not Available
  • ‡ = Partner data that is not subject to review by the National Climate Archives
Date modified: